TimeCST,TemperatureF,Dew PointF,Humidity,Sea Level PressureIn,VisibilityMPH,Wind Direction,Wind SpeedMPH,Gust SpeedMPH,PrecipitationIn,Events,Conditions,WindDirDegrees,DateUTC
1:20 AM,28.4,26.6,93,29.92,1.8,WSW,4.6,-,0.00,Snow,Light Snow,240,2013-03-05 07:20:00
1:40 AM,28.4,26.6,93,29.92,1.5,West,11.5,-,0.00,Snow,Light Snow,280,2013-03-05 07:40:00
1:43 AM,28.4,24.8,86,29.92,2.0,West,15.0,18.4,0.00,Snow,Light Snow,270,2013-03-05 07:43:00
1:52 AM,28.0,23.0,81,29.98,5.0,West,18.4,-,0.00,Snow,Light Snow,280,2013-03-05 07:52:00
1:59 AM,28.4,21.2,74,29.93,7.0,WNW,16.1,-,0.00,Snow,Light Snow,290,2013-03-05 07:59:00
2:07 AM,28.4,21.2,74,29.93,9.0,WNW,16.1,-,0.00,,Overcast,290,2013-03-05 08:07:00
2:52 AM,27.0,21.9,81,29.97,10.0,WNW,15.0,-,0.00,,Overcast,290,2013-03-05 08:52:00
3:31 AM,26.6,21.2,80,29.92,2.0,WNW,12.7,-,0.00,Snow,Light Snow,290,2013-03-05 09:31:00
3:41 AM,26.6,21.2,80,29.92,9.0,West,13.8,-,0.00,,Overcast,280,2013-03-05 09:41:00
3:52 AM,26.1,21.0,81,29.97,10.0,WNW,13.8,-,0.00,,Overcast,290,2013-03-05 09:52:00
4:52 AM,24.1,19.0,81,29.98,10.0,WNW,12.7,-,N/A,,Clear,290,2013-03-05 10:52:00
5:52 AM,19.0,16.0,88,29.99,10.0,WNW,5.8,-,N/A,,Clear,290,2013-03-05 11:52:00
6:52 AM,14.0,12.0,92,30.00,10.0,West,8.1,-,N/A,,Scattered Clouds,280,2013-03-05 12:52:00
7:52 AM,17.1,14.0,88,30.01,10.0,NW,6.9,-,N/A,,Partly Cloudy,310,2013-03-05 13:52:00
8:48 AM,23.0,19.4,86,29.97,10.0,NW,9.2,-,N/A,,Mostly Cloudy,310,2013-03-05 14:48:00
8:52 AM,24.1,19.9,84,30.03,10.0,NW,10.4,-,N/A,,Mostly Cloudy,310,2013-03-05 14:52:00
9:52 AM,26.1,21.9,84,30.04,7.0,NW,15.0,-,N/A,,Mostly Cloudy,320,2013-03-05 15:52:00
9:59 AM,26.6,21.2,80,29.98,1.8,NW,16.1,-,0.00,Snow,Light Snow,320,2013-03-05 15:59:00
10:11 AM,26.6,23.0,86,29.98,1.0,NW,13.8,-,0.00,Snow,Light Snow,320,2013-03-05 16:11:00
10:19 AM,26.6,23.0,86,29.99,1.8,NW,17.3,-,0.00,Snow,Light Snow,320,2013-03-05 16:19:00
10:24 AM,28.4,23.0,80,29.99,3.0,NW,18.4,-,0.00,Snow,Light Snow,320,2013-03-05 16:24:00
10:37 AM,28.4,23.0,80,29.99,4.0,NW,21.9,-,0.00,,Haze,320,2013-03-05 16:37:00
10:52 AM,28.0,24.1,85,30.04,4.0,NNW,19.6,-,0.00,,Overcast,330,2013-03-05 16:52:00
11:14 AM,28.4,23.0,80,30.00,2.5,NNW,24.2,28.8,0.01,,Haze,330,2013-03-05 17:14:00
11:39 AM,26.6,23.0,86,30.01,1.5,NNW,23.0,32.2,0.01,,Overcast,330,2013-03-05 17:39:00
11:52 AM,27.0,21.9,81,30.07,1.2,NNW,26.5,32.2,0.01,Snow,Light Snow,330,2013-03-05 17:52:00
12:15 PM,26.6,21.2,80,30.03,2.5,NNW,24.2,29.9,0.00,,Haze,340,2013-03-05 18:15:00
12:22 PM,26.6,21.2,80,30.03,3.0,NNW,24.2,-,0.00,,Haze,340,2013-03-05 18:22:00
12:33 PM,26.6,21.2,80,30.04,1.8,NNW,24.2,31.1,0.00,Snow,Light Snow,340,2013-03-05 18:33:00
12:52 PM,27.0,21.9,81,30.10,1.2,NNW,26.5,33.4,0.00,Snow,Light Snow,340,2013-03-05 18:52:00
1:07 PM,26.6,23.0,86,30.05,1.2,NNW,21.9,-,0.00,Snow,Light Snow,340,2013-03-05 19:07:00
1:17 PM,26.6,21.2,80,30.05,1.0,NNW,24.2,32.2,0.00,Snow,Light Snow,340,2013-03-05 19:17:00
1:32 PM,26.6,21.2,80,30.07,1.0,NNW,26.5,-,0.00,Snow,Light Snow,340,2013-03-05 19:32:00
1:40 PM,26.6,21.2,80,30.07,1.5,NNW,24.2,-,0.00,Snow,Light Snow,340,2013-03-05 19:40:00
1:49 PM,26.6,21.2,80,30.08,3.0,NNW,27.6,33.4,0.00,,Haze,330,2013-03-05 19:49:00
1:52 PM,27.0,21.9,81,30.13,3.0,NNW,25.3,33.4,0.00,,Haze,330,2013-03-05 19:52:00
1:59 PM,26.6,21.2,80,30.08,5.0,NNW,27.6,-,N/A,,Haze,330,2013-03-05 19:59:00
2:52 PM,27.0,21.9,81,30.15,6.0,NNW,20.7,31.1,N/A,,Haze,340,2013-03-05 20:52:00
3:52 PM,27.0,21.9,81,30.18,4.0,NNW,24.2,-,0.00,Snow,Light Snow,340,2013-03-05 21:52:00
4:34 PM,26.6,21.2,80,30.15,6.0,NNW,19.6,29.9,0.00,,Haze,340,2013-03-05 22:34:00
4:44 PM,26.6,21.2,80,30.15,7.0,NNW,24.2,32.2,0.00,,Overcast,340,2013-03-05 22:44:00
4:52 PM,26.1,21.0,81,30.21,6.0,North,24.2,32.2,0.00,,Haze,350,2013-03-05 22:52:00
5:08 PM,26.6,21.2,80,30.16,10.0,North,23.0,-,N/A,,Mostly Cloudy,350,2013-03-05 23:08:00
5:19 PM,24.8,19.4,80,30.17,10.0,NNW,19.6,-,N/A,,Scattered Clouds,330,2013-03-05 23:19:00
5:27 PM,24.8,19.4,80,30.18,10.0,NNW,24.2,-,N/A,,Mostly Cloudy,330,2013-03-05 23:27:00
5:50 PM,24.8,19.4,80,30.19,6.0,NNW,24.2,-,N/A,,Haze,340,2013-03-05 23:50:00
5:52 PM,25.0,19.9,81,30.26,5.0,NNW,26.5,31.1,N/A,,Haze,330,2013-03-05 23:52:00
6:13 PM,24.8,19.4,80,30.20,2.5,NNW,23.0,-,0.00,Snow,Light Snow,330,2013-03-06 00:13:00
6:21 PM,24.8,19.4,80,30.21,4.0,NNW,23.0,-,0.00,Snow,Light Snow,330,2013-03-06 00:21:00
6:37 PM,24.8,21.2,86,30.21,2.0,NW,20.7,-,0.00,Snow,Light Snow,320,2013-03-06 00:37:00
6:49 PM,24.8,19.4,80,30.22,4.0,NNW,20.7,-,0.00,,Overcast,330,2013-03-06 00:49:00
6:52 PM,24.1,19.9,84,30.29,5.0,NNW,19.6,-,0.00,,Overcast,330,2013-03-06 00:52:00
7:52 PM,23.0,19.0,85,30.30,7.0,NNW,24.2,28.8,N/A,,Overcast,330,2013-03-06 01:52:00
8:52 PM,21.9,19.0,89,30.32,9.0,NNW,19.6,-,N/A,,Overcast,330,2013-03-06 02:52:00
9:52 PM,21.9,18.0,85,30.32,10.0,NNW,18.4,-,N/A,,Overcast,330,2013-03-06 03:52:00
10:04 PM,21.2,17.6,86,30.27,10.0,NNW,19.6,-,N/A,,Overcast,340,2013-03-06 04:04:00
10:52 PM,21.9,18.0,85,30.34,10.0,NNW,19.6,-,N/A,,Overcast,330,2013-03-06 04:52:00
11:04 PM,21.2,17.6,86,30.28,10.0,NNW,17.3,-,N/A,,Overcast,330,2013-03-06 05:04:00
11:22 PM,21.2,17.6,86,30.29,10.0,NNW,19.6,-,N/A,,Overcast,330,2013-03-06 05:22:00
11:52 PM,21.0,17.1,85,30.35,9.0,NNW,21.9,-,N/A,,Overcast,330,2013-03-06 05:52:00